Wind_Speed
3 2 2 4 5 5 5 3 1 1 3 5 3 2 2 2 1 0 3 3 0 2 5 5 3 6 8 5 4 4 5 7 8 8 8 6 6 7 7 7 8 8 8 11 15 18 19 20 20 20 20 20 20 21 23 23 23 22 21 20 19 18 18 18 18 17 16 16 15 14 14 13 11 10 10 12 11 9 7 6 6 6 6 5 5 4
3 1 5 5 5 5 4 3 4 3 1 3 3 2 2 2 1 0 2 3 1 2 4 7 5 6 7 4 3 4 6 8 7 8 9 7 7 7 7 9 8 7 6 8 12 15 18 18 20 21 20 20 20 21 23 24 25 23 22 21 20 19 19 19 19 18 18 18 17 16 15 14 13 12 12 13 13 12 11 10 9 9 8 7 6 5
4 2 8 7 4 4 2 3 2 3 1 1 3 2 1 1 2 2 3 5 1 3 2 9 7 5 4 3 2 4 6 5 3 5 7 7 7 7 8 9 8 6 6 7 9 13 17 18 20 21 21 21 21 22 23 24 25 24 23 22 20 20 20 19 19 19 19 19 17 16 14 13 13 12 13 13 13 13 12 11 11 10 10 9 7 6
2 5 6 4 5 4 2 2 1 1 1 1 3 2 2 3 2 1 3 5 1 2 2 7 6 2 2 2 1 3 1 0 1 2 4 6 8 9 9 8 9 9 8 9 8 11 16 17 18 20 21 22 21 22 23 24 25 24 24 23 21 21 20 20 20 19 19 18 16 15 13 13 13 12 12 13 13 12 11 10 10 10 10 9 8 7
5 7 3 2 4 4 3 2 4 3 2 2 3 3 2 4 3 2 4 5 2 2 3 6 4 1 3 4 5 3 0 2 2 3 4 5 7 8 9 9 10 10 10 11 10 10 14 17 19 21 22 23 22 23 24 25 25 25 24 23 22 22 21 21 20 19 18 17 16 16 14 14 14 13 13 14 13 12 11 9 9 9 10 10 9 8
7 6 4 2 3 5 4 4 4 6 3 3 3 5 4 6 6 7 8 5 1 1 3 5 2 2 5 8 8 4 3 4 2 2 5 5 6 7 9 9 9 10 10 11 12 12 15 18 19 20 22 23 23 25 27 27 26 25 24 23 23 23 22 21 20 19 19 18 17 17 16 16 16 15 15 16 15 13 12 10 8 8 9 10 10 9
4 3 3 4 5 5 5 5 4 6 4 2 4 5 7 8 8 9 9 4 1 2 1 1 2 1 3 8 10 6 6 8 5 4 6 5 6 7 9 10 9 9 10 10 11 13 16 18 18 19 22 24 25 27 28 27 26 25 24 24 24 24 23 22 21 20 20 19 18 18 18 18 18 18 17 17 16 14 12 10 8 8 8 9 11 11
3 3 2 3 3 4 5 4 6 8 6 3 4 6 10 9 9 9 7 3 1 1 1 1 1 0 2 5 8 8 8 10 9 7 6 6 7 8 8 9 10 11 10 10 10 12 15 19 21 22 24 26 27 27 27 27 26 26 26 25 25 24 23 22 22 21 21 21 19 18 19 20 20 20 18 16 16 15 14 11 10 9 8 9 10 11
4 4 5 4 4 3 6 5 7 10 5 2 1 7 9 8 8 7 4 2 2 1 1 3 2 1 2 2 6 8 10 12 13 11 7 6 7 9 9 9 10 11 11 12 11 12 15 20 23 25 27 28 27 27 28 28 27 27 27 27 26 25 23 23 23 22 22 21 19 18 19 20 20 19 17 16 16 15 14 13 12 10 9 9 9 10
4 5 6 6 5 5 5 3 8 10 5 2 8 10 7 6 6 5 4 2 2 1 2 3 4 2 2 3 6 7 10 13 13 11 8 7 7 8 8 8 9 9 10 11 12 15 19 23 25 27 27 27 27 27 28 28 28 28 28 28 27 26 25 24 23 23 21 20 19 18 19 21 20 19 17 16 16 16 15 14 13 12 11 10 10 11
5 3 4 4 4 6 2 3 4 10 10 9 10 9 7 5 4 4 2 2 2 2 3 4 6 4 3 4 7 7 8 11 11 9 8 6 6 7 8 7 8 8 8 9 11 15 21 24 25 24 25 26 26 26 27 27 27 28 28 29 29 28 26 25 24 23 22 20 19 19 19 20 20 19 18 17 17 17 16 15 14 13 12 11 11 12
6 2 2 3 2 5 7 7 5 10 11 8 5 5 5 3 3 3 2 1 2 2 3 4 5 5 4 3 6 7 6 10 12 10 10 10 8 8 7 7 8 9 9 10 9 11 15 17 19 21 22 24 24 25 26 27 28 28 29 29 29 28 27 26 25 24 22 21 20 19 19 19 19 18 18 18 18 18 17 16 15 13 13 12 13 13
5 1 1 3 1 6 9 8 5 4 3 4 5 4 4 3 3 2 2 1 2 3 2 4 4 3 5 3 5 8 8 11 14 12 11 11 10 9 8 8 8 8 9 9 9 10 10 12 16 19 21 22 23 25 27 27 28 28 29 30 30 29 29 27 26 25 23 22 20 19 19 19 19 19 19 19 19 18 18 17 16 14 14 14 14 15
4 5 4 4 1 2 7 8 5 2 2 5 6 4 4 3 2 1 2 2 2 3 1 3 3 2 3 3 6 11 12 12 13 12 10 10 10 9 8 9 8 9 10 9 9 9 9 13 18 20 22 23 25 26 28 28 28 29 29 29 30 30 29 28 28 27 25 23 21 19 20 20 20 20 20 20 20 19 19 18 17 16 15 15 14 15
2 4 3 2 2 3 1 5 7 8 6 4 3 5 4 4 3 2 3 2 2 1 1 1 2 2 2 2 5 9 12 11 10 11 10 8 8 7 7 7 8 9 9 9 9 9 11 17 20 21 23 24 26 27 28 28 28 28 29 30 30 30 29 29 28 28 27 25 22 20 20 20 21 21 21 21 20 19 19 19 18 17 16 16 15 14
2 3 6 3 3 3 3 2 4 6 4 1 1 4 1 3 4 2 2 4 3 2 1 1 2 3 3 3 2 4 7 10 9 9 10 9 8 7 6 7 8 9 9 9 9 9 12 18 21 22 23 25 26 27 28 28 29 29 30 31 31 31 30 29 29 29 28 26 23 21 21 20 19 20 21 21 20 19 19 18 18 18 17 16 16 15
2 3 6 5 4 2 4 4 5 5 4 0 1 1 3 3 6 4 1 1 3 1 2 2 2 3 2 3 2 5 6 9 9 9 11 11 9 9 8 8 8 9 10 11 11 10 12 17 20 22 24 25 25 26 28 29 31 32 32 31 32 31 30 29 29 28 28 26 24 22 22 20 19 19 20 20 20 19 18 17 17 17 18 17 16 16
2 3 5 4 6 6 3 4 5 4 4 4 1 3 2 1 3 4 1 2 3 0 2 2 3 3 1 2 1 5 6 8 9 9 11 11 10 10 10 9 10 10 11 12 12 11 13 17 20 22 24 26 28 29 30 32 33 33 33 32 32 31 30 30 29 29 28 27 25 24 22 21 19 18 18 18 18 18 17 17 17 17 18 18 16 16
3 2 5 2 3 7 4 5 4 1 2 5 5 1 3 1 2 1 1 0 1 1 3 2 3 3 3 3 2 5 7 9 10 10 11 12 12 11 10 10 10 10 9 10 10 10 12 16 21 23 25 27 28 30 31 32 32 31 31 32 31 31 31 30 29 28 28 27 26 25 23 22 21 19 18 17 17 17 17 18 17 17 17 16 15 15
2 2 3 5 5 5 5 5 1 3 4 2 2 2 3 4 4 2 2 2 2 1 2 2 2 3 4 3 5 8 9 9 11 10 10 12 13 11 10 10 10 10 9 9 10 10 11 17 23 25 27 28 29 30 30 30 29 29 30 30 30 30 29 29 29 28 28 28 27 26 24 23 22 21 20 18 17 17 18 18 18 18 17 16 15 15
2 3 1 6 7 3 2 1 1 1 1 1 2 2 2 2 3 3 2 1 3 2 2 1 2 4 4 2 4 7 8 9 10 10 10 12 13 13 12 11 9 9 10 10 10 10 12 18 23 26 28 29 29 29 29 29 29 29 29 29 29 29 28 28 29 28 28 28 28 27 25 24 23 22 21 20 18 18 18 18 18 18 17 16 15 15
1 2 2 2 5 3 3 3 1 1 3 3 2 1 2 3 3 3 3 2 2 3 3 3 2 5 3 2 4 4 5 7 8 9 9 9 11 12 11 12 11 10 10 10 11 10 12 17 22 25 26 26 25 26 27 28 29 28 28 29 29 29 29 29 29 29 29 28 28 27 26 24 23 22 22 21 20 19 18 17 18 17 17 16 15 15
2 3 4 0 2 4 8 7 3 2 1 3 2 3 1 1 1 3 3 3 0 1 1 2 1 5 3 4 4 1 2 3 6 8 8 8 9 10 9 9 9 10 10 11 11 10 13 19 22 23 24 24 24 24 24 25 26 28 29 30 29 29 30 30 30 30 30 29 28 28 26 25 23 22 22 21 21 20 19 18 17 16 16 16 15 14
2 3 3 1 4 5 7 7 4 3 4 3 2 3 2 2 2 3 4 2 1 1 1 1 2 4 3 5 5 2 3 3 1 4 6 5 4 6 8 8 8 8 9 9 9 9 12 17 19 20 22 23 24 24 24 24 25 25 26 27 28 30 31 31 30 30 30 29 29 28 26 25 24 23 22 22 22 21 20 19 18 16 16 16 15 15
1 1 3 3 3 5 6 6 5 4 4 2 3 4 3 4 5 2 2 1 1 3 3 3 3 4 3 5 5 4 4 4 4 3 2 3 1 1 3 5 6 7 8 8 8 8 9 12 15 18 21 24 26 26 26 27 27 26 26 26 27 28 29 29 30 30 30 30 28 27 27 26 25 24 23 23 22 21 21 20 19 17 17 17 16 16
2 2 3 4 3 2 1 2 2 3 3 2 3 6 6 8 8 2 2 2 1 3 3 4 3 3 3 4 6 5 4 4 4 6 4 1 2 3 2 3 4 5 6 7 7 7 8 10 13 17 21 23 25 27 28 28 29 29 29 28 27 27 26 26 27 27 28 28 27 27 27 26 26 25 24 23 21 20 20 21 20 19 18 18 18 17
4 2 2 5 6 6 6 5 5 2 1 2 5 7 7 8 8 3 2 2 1 2 1 3 3 1 1 4 5 5 4 4 4 5 4 1 1 2 3 2 2 3 4 5 5 5 6 6 8 13 19 23 25 27 29 29 30 31 30 28 28 28 26 24 24 25 26 26 26 27 27 27 27 25 24 23 21 19 19 20 20 20 20 20 19 19
5 2 1 4 3 4 5 4 4 3 4 1 3 6 7 7 9 8 4 2 2 1 3 5 2 2 1 3 4 4 4 4 4 4 4 2 2 2 4 4 3 2 3 4 4 4 4 3 4 6 11 17 21 25 27 28 29 31 31 31 31 31 31 29 27 27 27 27 27 28 28 28 26 25 23 22 21 19 19 19 19 20 20 20 20 20
6 1 2 3 2 3 1 2 4 2 5 3 2 4 6 6 9 9 6 3 1 2 3 4 2 2 1 3 4 4 4 4 4 4 4 5 4 3 4 5 4 4 2 3 4 3 3 3 3 4 6 9 14 19 22 23 25 26 28 29 30 31 31 32 31 30 29 28 28 29 29 28 26 24 22 22 21 20 19 19 20 19 19 19 19 19
4 2 3 4 1 3 2 3 3 1 4 3 2 3 4 3 6 7 6 6 3 3 2 1 4 4 3 3 3 3 3 3 2 3 3 5 6 6 6 5 4 2 1 2 3 3 4 4 4 6 8 8 10 14 17 20 21 23 25 27 28 29 29 30 30 30 30 30 30 30 29 27 25 23 22 22 21 20 20 20 19 20 20 20 20 19
3 1 1 4 3 2 3 2 2 1 3 2 2 3 4 3 4 5 5 5 4 3 4 4 4 4 3 3 4 4 3 3 3 4 4 4 6 8 8 6 4 4 3 2 3 4 4 5 6 8 10 12 13 13 15 17 20 22 23 25 26 28 28 29 29 29 30 29 29 28 27 26 25 23 23 23 22 21 21 20 20 20 20 21 20 19
3 2 1 4 3 3 3 4 4 1 4 3 3 4 4 3 2 2 3 3 4 3 1 1 1 1 1 3 4 5 5 6 6 5 6 5 5 7 8 7 6 6 5 5 4 4 5 5 6 7 9 11 12 13 14 16 18 21 23 24 23 23 24 26 27 27 25 22 22 24 24 23 22 21 20 20 20 20 21 21 21 21 21 22 21 19
2 4 2 3 2 3 4 4 3 2 4 3 4 2 1 0 0 2 1 4 4 4 2 1 1 2 3 5 5 6 6 6 5 4 4 4 4 6 7 7 7 6 5 5 5 5 5 5 6 8 10 10 11 12 14 16 19 21 22 22 22 21 21 21 20 21 21 17 17 20 20 19 18 17 17 17 16 17 18 19 20 19 18 17 15 13
3 4 2 2 3 3 5 4 3 3 1 4 5 2 3 3 2 1 1 3 4 3 1 0 2 2 4 7 5 5 5 4 3 3 2 2 2 4 5 5 5 5 4 4 4 4 4 6 8 9 12 14 14 14 13 15 16 16 16 18 20 21 22 20 17 16 18 17 16 15 15 16 15 14 14 13 13 14 14 16 15 13 10 8 7 7
3 4 2 2 3 1 3 5 3 2 4 5 5 4 2 5 5 3 0 1 3 2 2 2 2 3 2 3 5 4 2 5 5 5 6 5 3 4 6 6 6 7 7 6 6 6 6 8 10 10 10 12 14 13 11 11 12 12 13 16 18 18 18 18 15 14 15 15 13 12 12 12 12 12 12 11 11 11 10 8 5 4 5 6 7 10
5 4 2 2 1 0 2 3 2 5 6 4 5 4 1 3 4 3 2 4 3 4 4 2 1 3 2 1 2 6 5 3 5 6 8 9 7 6 6 6 7 8 7 6 7 7 7 8 9 10 9 10 13 14 13 13 14 13 14 16 17 16 16 16 14 12 12 12 10 9 9 8 7 7 7 8 8 8 7 6 6 6 3 6 5 4
6 4 2 2 0 1 2 1 2 3 4 3 3 3 2 2 3 4 1 5 4 5 5 4 4 4 3 1 2 1 6 4 3 4 7 9 9 9 8 8 9 9 8 9 9 9 8 9 9 9 10 10 12 14 15 16 16 16 15 16 16 16 15 15 14 13 12 11 10 8 8 8 6 4 2 3 5 6 5 4 4 3 5 8 7 6
5 3 4 3 1 2 4 1 2 3 2 4 5 3 1 3 5 6 3 4 5 5 6 6 7 5 3 2 2 3 3 5 2 4 6 8 8 9 10 10 11 11 11 11 11 11 12 11 11 12 13 14 13 11 12 14 16 19 19 19 20 19 17 15 14 14 12 11 9 8 7 6 5 4 3 3 3 1 1 1 2 3 2 3 5 8
6 3 4 4 1 2 4 2 2 2 3 6 6 5 2 3 5 6 4 4 5 6 7 6 7 7 4 2 1 3 1 4 1 2 3 7 8 9 9 9 11 13 14 14 14 14 15 15 15 15 16 16 13 10 11 13 16 18 17 16 18 19 18 17 16 14 13 11 10 9 9 9 8 7 4 2 1 3 5 4 2 3 4 2 1 3
5 4 3 3 2 3 4 2 2 3 3 4 5 5 3 3 6 7 2 5 5 5 6 6 6 6 4 2 3 3 1 3 4 1 3 6 8 9 10 9 10 13 14 14 15 15 15 16 17 17 17 16 12 10 12 15 18 20 18 18 18 18 16 15 16 17 16 14 13 11 10 10 10 9 8 5 4 5 5 5 4 4 4 2 1 3
3 3 2 3 3 3 4 2 2 4 4 5 5 5 4 3 5 4 3 6 4 5 4 4 5 4 3 3 2 1 1 2 6 6 5 6 8 10 11 12 14 15 15 15 15 16 17 17 17 18 17 15 13 12 14 18 21 22 21 22 22 21 18 18 18 18 17 17 16 15 14 13 12 10 10 9 7 6 6 6 5 4 3 3 3 2
1 1 1 2 3 2 3 2 1 4 4 4 3 3 3 3 2 3 5 3 3 6 4 3 4 4 3 3 3 2 3 6 8 8 6 7 7 8 9 12 14 14 16 17 16 17 17 16 16 18 17 16 15 15 17 21 24 24 23 23 21 18 18 19 18 18 19 19 18 17 16 14 13 12 12 11 9 9 9 8 7 5 5 6 7 7
3 2 1 2 3 2 2 2 1 2 3 2 3 1 2 3 4 4 1 2 2 5 4 3 3 4 4 4 5 6 8 8 8 8 7 7 7 7 9 10 11 11 13 16 17 17 17 16 17 18 18 17 17 18 19 22 24 24 24 23 19 16 18 19 18 17 18 19 19 18 17 15 14 13 13 11 10 11 11 9 8 7 7 7 8 9
3 3 2 3 3 3 3 1 3 4 4 2 2 3 3 4 4 4 3 1 1 4 4 3 2 3 5 7 8 9 9 8 8 8 7 6 6 7 8 10 10 11 12 14 15 16 17 17 18 18 18 18 19 19 21 23 23 23 22 20 16 15 16 16 15 15 16 17 17 17 16 15 14 13 13 12 11 11 11 10 8 8 7 7 7 8
4 4 4 3 3 3 5 5 4 3 3 3 3 3 3 4 3 1 4 3 3 3 4 4 3 3 6 9 9 8 7 6 7 6 6 6 6 6 8 10 12 12 12 13 14 15 16 17 18 18 18 18 18 19 20 21 22 21 19 16 15 15 15 15 15 16 17 17 17 16 15 14 13 12 11 11 11 12 12 10 8 6 5 5 5 6
3 3 3 2 1 1 2 3 1 1 3 3 2 2 1 4 5 4 2 1 4 4 4 5 5 5 6 8 8 7 5 6 6 6 6 6 6 7 10 12 13 14 14 13 13 14 15 16 17 18 18 17 17 17 17 18 20 19 17 15 14 14 14 14 15 16 16 15 15 14 14 13 13 12 11 10 10 11 11 10 8 6 4 3 3 3
2 3 3 3 2 1 1 2 2 2 4 4 1 1 4 7 7 8 7 3 2 6 6 6 7 7 6 6 8 8 6 7 7 6 5 6 6 8 11 12 12 14 14 13 13 14 15 16 16 16 17 17 15 15 16 17 17 17 15 14 13 12 12 13 15 15 14 14 13 12 11 11 11 11 10 10 10 10 10 9 8 7 5 3 2 1
2 3 3 2 3 2 3 4 2 2 4 4 1 3 4 6 7 9 9 7 4 5 5 7 9 7 5 6 8 8 7 7 7 6 5 5 6 8 10 12 13 15 14 13 13 14 14 15 16 16 16 16 14 14 15 16 16 15 15 15 14 12 12 13 13 13 13 13 12 12 11 11 11 10 10 10 9 9 9 9 8 7 6 5 3 1
3 3 2 3 3 1 3 3 2 1 2 5 3 5 5 5 7 9 9 8 8 8 5 3 7 8 7 7 8 9 8 6 6 7 6 5 5 8 10 13 15 15 15 14 14 14 15 15 15 15 15 15 14 14 15 15 15 14 14 14 13 12 13 12 11 11 12 12 12 11 11 11 10 10 9 9 8 7 7 7 7 6 5 5 4 3
4 3 2 4 4 1 4 5 4 3 2 1 1 4 5 6 10 8 5 4 6 9 9 8 5 5 7 7 8 9 8 5 7 8 7 6 7 9 11 13 14 14 14 15 15 15 16 16 15 15 15 14 13 14 14 14 13 13 13 12 11 11 12 13 11 11 11 11 11 10 10 9 9 8 7 7 7 7 6 6 6 6 5 4 4 3
5 6 6 6 4 5 6 7 6 5 4 3 4 4 5 6 8 6 4 2 5 6 4 6 7 4 7 6 7 10 8 6 9 11 8 7 10 12 12 13 13 12 12 12 13 14 14 14 13 13 13 12 12 12 12 12 12 12 13 12 10 9 10 11 11 11 9 8 8 8 7 7 6 6 5 5 5 5 5 5 5 6 6 6 5 4
Wind_Direction
94 117 242 214 208 210 215 233 247 105 118 119 118 142 144 128 178 156 113 114 208 183 173 169 145 148 155 144 140 136 133 167 179 180 183 171 166 177 180 180 179 186 193 182 173 173 175 180 184 184 185 186 186 190 191 190 190 191 189 189 188 187 185 185 187 188 190 194 198 204 208 210 211 215 211 202 199 199 204 207 207 214 223 232 242 254
53 149 248 238 206 208 223 251 269 276 32 99 123 136 109 122 162 74 124 132 358 289 181 156 150 167 162 143 136 141 162 180 179 185 190 178 174 180 180 183 184 184 176 166 166 167 170 177 181 180 182 184 186 189 193 193 192 192 193 191 189 188 190 191 190 190 193 196 199 203 207 212 217 220 216 210 210 214 219 224 229 234 240 244 246 252
8 253 257 252 190 165 215 239 258 260 243 100 106 123 135 170 140 100 127 140 138 319 174 157 157 166 156 131 149 169 176 180 171 195 200 181 176 184 184 184 181 170 160 163 166 164 168 176 179 178 180 184 187 189 192 193 192 193 195 194 192 191 193 193 193 193 195 197 200 205 211 216 222 225 221 221 223 224 225 229 234 237 241 243 242 246
320 248 245 231 154 143 239 216 167 241 235 141 130 129 183 186 160 119 143 138 108 355 147 156 140 122 123 102 197 204 172 15 339 256 225 188 181 187 185 182 175 170 170 171 170 166 167 172 177 177 179 183 186 188 190 192 192 194 197 197 195 194 195 196 196 196 197 200 203 211 220 221 221 222 221 225 227 223 222 226 232 236 236 235 235 240
253 245 209 123 143 164 237 205 160 185 264 268 189 168 178 177 153 82 124 128 79 24 158 151 112 115 183 184 208 208 238 299 315 299 258 207 187 186 181 182 179 174 174 172 170 170 168 172 180 180 179 181 183 187 190 192 193 196 198 200 199 196 195 198 200 201 203 205 207 213 219 216 215 218 219 221 221 217 218 226 233 235 234 231 228 232
266 250 174 192 206 178 208 227 185 182 226 305 230 189 159 154 135 110 123 128 102 253 192 166 161 209 188 195 206 193 198 234 248 251 243 211 186 189 182 183 185 179 178 176 171 172 174 177 180 180 180 181 184 189 192 193 195 198 201 201 201 199 198 201 206 208 208 207 209 211 210 206 206 210 215 218 216 216 220 229 237 237 233 228 224 227
269 271 162 194 208 175 197 236 212 170 148 305 251 174 135 135 131 129 140 143 172 231 227 195 221 205 186 199 201 185 195 221 229 231 234 211 187 195 192 182 183 182 181 180 174 173 176 176 176 179 183 184 188 191 193 195 198 201 203 202 201 203 204 208 212 212 208 206 209 212 211 210 209 210 216 220 219 219 222 228 235 237 233 227 223 226
214 255 215 174 155 161 191 235 217 163 138 247 241 139 131 136 134 139 148 136 77 29 25 305 218 217 238 199 185 178 192 217 231 233 233 219 196 195 199 187 180 182 180 178 177 177 178 177 178 182 186 189 191 192 193 195 199 202 203 202 202 206 210 212 213 209 206 206 207 210 212 213 214 217 220 220 218 219 222 227 231 234 236 230 224 226
198 214 218 169 117 168 209 222 189 151 127 265 163 118 127 129 131 136 127 84 42 24 298 251 201 197 272 170 162 179 196 212 222 223 222 216 201 193 197 193 184 185 182 177 178 180 180 181 183 186 187 190 192 193 193 195 197 200 202 203 204 207 210 210 208 206 206 209 209 210 211 211 213 218 220 217 217 218 220 227 231 232 235 233 227 226
234 213 199 149 137 206 221 196 168 144 123 124 101 91 88 90 100 99 81 56 33 6 241 227 196 209 257 163 162 187 205 212 213 214 216 210 199 192 193 191 186 187 185 181 180 180 183 185 187 188 187 189 192 194 195 195 196 198 201 202 203 204 206 206 206 206 208 210 212 212 211 209 210 212 215 216 216 217 220 227 230 231 233 232 229 225
276 237 175 144 175 200 139 78 140 131 124 120 99 87 80 65 59 67 60 66 49 299 238 194 187 209 246 193 183 194 201 204 204 207 210 205 196 192 191 187 182 185 187 184 183 184 186 187 187 186 185 187 191 194 195 194 195 197 200 202 202 204 206 208 209 210 211 212 214 215 213 212 212 212 214 215 216 218 221 225 229 232 234 233 228 222
324 21 191 240 199 139 94 65 83 115 122 115 99 104 95 41 11 46 13 52 116 264 246 180 175 198 233 225 204 208 189 185 199 206 202 200 200 195 189 183 181 183 186 184 184 187 185 182 181 183 184 186 188 190 192 194 195 197 199 201 202 205 208 211 212 212 214 215 216 217 218 219 220 221 221 220 223 224 224 226 229 231 236 237 230 224
336 321 264 326 32 117 105 87 80 87 96 110 114 104 83 34 0 18 335 312 194 255 241 155 148 198 240 240 203 210 201 190 197 203 203 201 198 191 183 180 180 182 186 185 184 185 180 176 177 181 183 183 185 189 192 194 195 196 199 201 202 205 208 212 213 213 214 215 217 218 221 224 226 229 230 230 231 230 229 229 229 232 235 237 232 228
335 315 7 39 325 152 118 120 136 190 209 159 150 130 114 109 68 282 264 281 253 265 263 144 154 217 269 252 196 199 204 199 194 197 203 203 199 193 183 177 177 181 185 187 185 183 180 180 180 181 182 183 187 190 192 193 195 196 198 200 202 205 208 211 212 213 214 216 219 222 224 227 229 232 233 234 234 233 231 231 232 236 237 236 235 232
34 319 350 79 260 278 161 157 163 165 168 183 158 125 136 152 150 198 211 209 230 215 85 117 179 191 210 234 203 196 199 194 188 195 200 201 199 191 177 170 173 181 186 187 186 185 186 185 183 183 184 186 189 191 191 193 195 196 198 200 202 204 206 210 212 213 214 217 221 226 228 230 232 234 235 235 235 234 233 233 237 241 241 240 240 239
85 269 270 274 249 247 270 224 136 125 137 247 73 106 157 180 147 140 196 180 157 126 144 200 234 217 202 225 205 170 185 181 180 194 197 201 196 175 168 175 177 183 185 186 186 187 190 189 185 184 186 189 191 191 192 194 195 197 199 201 203 205 207 209 211 212 214 217 222 227 229 231 234 235 235 233 233 233 234 237 241 244 245 245 245 245
47 277 280 324 336 262 228 197 148 134 151 156 38 191 235 181 125 109 250 212 93 93 234 206 252 288 291 262 189 135 158 172 177 191 200 203 192 176 180 183 183 185 184 186 188 187 189 189 188 188 188 190 191 193 194 196 198 199 200 201 202 204 207 209 211 211 212 216 221 226 229 232 234 235 234 233 233 233 235 240 245 246 247 249 249 248
124 289 294 353 348 303 258 152 139 141 133 125 213 248 262 26 73 107 129 357 53 159 262 213 238 279 290 282 210 140 158 170 175 187 201 203 191 187 192 184 184 189 187 188 188 185 187 188 190 191 192 193 193 195 198 199 201 202 202 202 202 203 206 209 211 212 213 217 220 223 227 230 233 234 235 235 237 237 240 245 247 246 247 250 250 250
102 335 291 297 317 309 349 89 125 280 64 132 180 210 77 66 318 1 133 77 124 224 283 271 268 260 212 222 210 184 184 176 174 183 197 203 196 193 194 185 185 188 186 186 185 185 188 189 191 193 194 196 197 198 201 202 202 202 203 204 204 206 209 211 212 213 215 218 220 223 227 229 231 232 233 236 240 242 245 248 249 247 246 248 248 249
81 56 289 303 318 325 12 61 133 290 341 64 116 78 104 166 211 248 209 166 161 201 261 292 314 265 232 228 205 200 194 180 178 182 194 204 200 194 193 187 184 182 181 184 184 187 190 190 194 195 195 197 198 200 202 202 202 203 204 204 206 208 210 212 213 215 216 218 220 224 226 228 230 231 232 236 239 243 246 248 250 248 247 247 247 250
54 74 269 307 328 358 25 24 171 229 291 354 73 119 189 212 210 243 255 149 138 159 193 236 298 264 261 275 227 213 197 184 183 185 193 201 198 194 193 188 181 178 181 184 184 188 192 193 195 197 198 199 198 200 201 201 203 205 205 205 206 208 209 211 213 215 217 219 220 223 226 228 230 231 232 234 237 241 244 247 248 248 248 250 250 251
82 97 136 309 341 355 268 262 246 236 209 173 115 115 236 243 206 225 277 292 120 129 166 165 236 268 284 322 276 236 197 188 187 189 195 196 194 194 193 188 181 176 180 184 185 187 191 194 195 196 198 199 198 199 200 201 202 203 205 207 207 208 209 211 214 216 218 219 220 222 226 228 230 231 231 233 235 237 239 242 244 246 248 249 248 249
148 106 100 62 303 273 268 283 318 320 204 137 85 36 354 287 118 148 229 264 10 95 167 140 233 268 289 333 318 300 155 174 189 200 203 197 193 190 185 181 176 175 179 182 183 186 189 193 194 193 193 194 196 198 200 201 201 203 206 208 207 208 211 213 215 217 218 218 220 222 225 227 229 230 231 233 235 235 236 237 240 243 246 246 245 249
99 80 70 341 301 302 300 316 343 11 54 68 6 11 35 318 294 205 202 197 168 211 183 93 272 267 303 339 341 36 90 84 103 222 208 194 194 187 177 167 165 171 175 177 180 182 185 187 188 187 187 188 191 194 196 198 202 205 207 208 209 210 212 213 214 215 216 217 220 222 223 225 226 227 229 232 235 236 238 238 240 242 242 242 245 250
84 85 80 72 7 345 339 344 350 358 32 55 299 330 359 340 329 276 216 91 218 224 149 131 245 265 302 343 1 30 72 73 31 16 122 135 122 159 153 146 157 167 168 172 175 172 174 178 179 183 184 186 187 189 191 194 198 202 205 207 210 212 213 213 212 213 214 215 217 219 221 224 225 226 227 230 235 240 242 242 242 243 241 241 245 251
102 129 114 112 126 162 215 287 291 303 335 341 310 328 352 5 6 338 190 109 209 240 144 151 220 263 307 353 14 15 35 60 40 48 76 139 181 142 98 110 154 166 164 168 170 170 176 178 178 181 182 184 185 186 187 191 194 197 200 203 206 210 213 213 212 211 212 213 213 215 219 223 225 227 228 230 234 240 245 245 245 244 242 241 245 249
95 97 105 134 159 172 174 206 220 196 26 337 324 335 353 8 12 20 95 98 221 268 269 228 216 163 315 348 12 5 12 30 38 68 84 346 287 116 100 93 132 152 155 156 156 165 179 185 186 183 182 182 183 185 187 189 191 193 194 197 201 205 208 210 212 212 211 211 212 215 218 222 225 229 230 232 235 240 246 248 247 246 244 244 247 249
92 61 66 132 182 200 164 194 226 156 128 196 320 344 355 8 26 37 29 332 262 277 299 294 329 94 228 315 358 358 359 7 17 51 89 96 33 50 71 65 54 73 118 134 141 152 161 172 186 189 190 186 181 181 185 188 191 192 191 194 198 201 203 205 208 210 211 211 212 215 220 222 226 229 232 234 237 241 246 247 247 247 247 248 249 252
105 153 196 149 258 288 170 248 272 173 144 145 32 1 349 14 41 38 6 336 85 156 247 293 17 95 218 344 6 2 359 2 12 27 65 102 102 95 92 81 59 42 63 130 134 122 119 133 145 159 187 191 180 177 181 185 189 191 191 193 196 199 201 202 203 205 209 210 211 216 220 223 226 229 232 234 236 239 243 245 246 247 249 249 251 257
108 184 197 140 91 322 302 275 289 142 136 129 65 11 346 34 64 49 14 358 34 117 162 61 80 81 40 16 16 18 20 24 39 37 53 90 105 108 106 99 91 75 65 140 137 126 120 123 134 143 158 179 185 179 178 182 186 188 190 192 194 196 199 199 199 201 205 209 213 217 220 221 225 229 231 233 235 236 238 240 243 246 248 250 255 263
92 165 196 104 90 304 306 342 338 46 102 97 37 13 5 31 66 62 37 356 347 73 99 98 96 74 49 43 29 30 47 62 66 54 45 63 89 100 108 122 141 148 156 151 141 137 131 128 136 146 159 174 185 185 182 184 186 187 190 193 195 196 197 197 198 200 203 207 210 214 216 219 222 227 230 234 237 238 239 242 245 246 247 250 256 263
82 120 61 75 85 266 306 359 326 341 72 29 336 353 4 23 54 55 55 21 342 336 11 70 65 28 93 103 54 41 46 43 41 43 44 52 74 93 110 131 147 156 162 156 151 149 149 149 150 154 162 170 178 183 186 187 188 190 193 193 194 194 192 193 196 196 198 205 211 211 211 215 219 224 230 233 237 242 245 247 247 246 247 250 253 254
101 124 141 102 101 259 295 348 335 23 46 330 286 291 296 208 2 334 29 49 11 333 334 30 313 327 70 85 54 38 42 40 29 19 34 53 66 82 100 115 125 138 148 151 156 158 151 137 130 144 156 162 170 181 188 193 195 198 199 194 192 189 184 185 189 188 190 205 220 214 208 211 216 221 226 230 234 240 244 246 246 244 244 245 246 245
89 100 133 128 113 252 289 344 21 30 349 250 256 247 174 159 130 84 24 35 37 19 358 25 296 333 73 86 70 27 5 10 16 351 353 34 71 90 89 84 88 89 80 90 103 99 100 107 121 147 163 168 173 179 186 191 192 192 190 185 182 180 179 181 185 185 188 203 218 214 205 206 210 213 219 221 223 228 233 236 236 229 219 217 221 226
94 86 113 104 101 214 314 23 45 270 244 243 280 289 155 127 111 103 307 298 93 114 216 244 307 321 12 96 116 110 8 353 21 31 20 18 40 93 91 72 64 66 62 66 75 78 90 110 125 142 157 169 177 178 176 178 178 170 160 158 161 164 168 173 176 178 182 189 200 205 200 201 208 212 215 215 213 218 222 218 200 138 152 201 231 236
132 129 128 81 71 229 29 67 155 248 260 269 290 282 172 92 72 61 317 271 178 163 194 191 249 275 278 334 111 122 110 24 6 29 34 28 33 64 80 73 63 66 68 66 68 73 83 100 117 129 138 155 170 174 174 174 172 162 149 149 154 157 160 164 164 169 177 176 178 186 188 192 205 210 211 216 215 212 198 169 121 87 136 210 235 265
134 140 121 79 92 162 119 156 254 302 310 279 255 233 184 160 141 126 250 270 226 182 179 170 184 209 189 80 334 80 108 87 350 9 39 41 45 57 63 63 61 60 56 53 57 68 79 92 105 111 113 120 138 160 175 175 168 159 151 152 158 161 164 166 163 166 176 177 171 167 169 180 186 176 187 235 231 219 206 186 186 219 234 228 236 264
102 146 162 158 182 111 97 53 332 358 318 257 246 254 222 164 148 129 114 284 249 190 177 175 173 181 174 143 308 312 73 86 9 339 33 47 52 60 62 59 58 58 52 49 51 51 55 66 77 86 96 98 102 125 150 155 153 150 146 147 153 157 159 161 161 162 163 159 150 136 129 140 154 168 212 258 266 247 28 1 278 284 310 275 259 265
50 57 114 122 131 115 111 117 182 203 247 247 240 254 249 157 129 99 63 299 249 182 171 180 168 163 176 170 339 317 28 103 132 304 34 60 59 64 69 63 57 57 56 57 59 57 55 62 69 75 82 82 81 95 113 121 127 125 119 122 133 138 138 139 141 141 136 127 121 117 108 102 104 117 141 163 59 65 71 64 46 43 51 51 274 254
33 27 68 110 153 154 136 146 210 222 250 251 235 239 224 148 106 86 50 278 244 175 169 179 163 152 153 107 42 353 304 139 145 131 68 75 74 73 79 79 71 65 61 57 60 67 72 75 75 73 69 69 75 88 97 102 102 95 86 87 94 94 92 99 107 111 110 107 104 103 99 97 104 112 117 114 94 76 75 72 65 68 77 94 177 211
30 25 74 135 149 150 150 165 254 254 246 241 236 227 197 134 87 96 211 236 203 167 178 170 147 135 126 112 95 20 315 101 115 109 91 83 81 78 81 83 81 78 73 67 63 67 72 73 73 72 70 73 84 90 93 95 90 84 84 85 85 84 86 91 96 98 100 100 98 97 96 98 104 108 102 95 89 83 80 74 70 75 84 91 106 135
112 61 74 126 129 138 150 145 302 275 245 202 196 215 176 149 158 203 225 236 150 152 167 150 140 139 128 125 133 130 106 97 100 103 97 90 87 86 86 85 84 83 84 82 77 73 74 73 74 74 74 78 87 90 93 93 85 80 81 79 76 84 93 94 93 93 95 95 95 94 95 95 95 91 85 81 79 80 81 77 72 69 63 74 91 100
174 164 205 185 157 120 84 76 91 255 253 164 132 148 145 167 207 212 222 357 81 134 140 136 148 152 135 123 121 114 105 98 101 105 101 95 91 89 88 86 84 84 85 86 85 84 84 79 75 75 76 80 86 88 90 90 84 80 80 78 76 84 90 89 87 87 87 88 88 87 87 87 84 79 76 75 75 78 80 80 78 72 59 62 84 102
186 169 193 223 187 129 120 184 202 217 248 256 176 189 207 220 219 182 142 81 90 125 130 134 165 161 134 122 114 109 106 106 111 111 106 100 97 92 91 92 91 88 86 88 92 95 93 86 81 79 80 83 87 88 88 88 83 78 77 77 79 84 87 88 87 84 82 82 82 83 83 82 79 74 70 70 69 72 75 76 74 75 71 69 83 102
212 186 172 187 192 164 176 214 231 230 257 279 244 225 262 301 299 189 158 151 138 142 142 136 148 152 130 120 113 108 109 112 112 112 108 105 102 100 101 100 100 100 98 96 99 99 95 91 90 88 86 85 86 86 88 89 87 83 79 80 83 85 88 92 92 89 87 83 80 80 79 76 73 68 66 66 65 65 66 66 66 72 77 73 70 82
221 176 137 138 195 214 201 219 269 335 313 303 263 227 12 18 5 349 328 159 136 134 137 134 137 136 128 124 121 114 116 119 113 110 111 107 104 104 103 102 105 109 109 106 106 106 103 99 96 92 88 85 85 85 84 84 84 82 81 82 81 82 86 91 92 90 86 81 77 74 69 67 66 65 65 65 62 61 61 59 59 65 73 72 63 62
221 153 103 86 94 99 232 292 2 334 283 290 298 75 46 42 33 10 340 309 127 122 134 138 130 126 127 128 125 123 127 126 119 114 111 107 106 106 105 106 108 111 114 115 115 115 113 106 98 92 87 83 81 81 80 77 76 76 76 74 71 73 80 83 84 83 78 74 71 66 62 63 64 63 63 62 58 58 60 57 53 55 60 69 82 105
183 133 103 92 96 124 237 275 307 262 267 300 28 82 57 44 42 25 351 332 18 81 126 133 125 132 151 143 131 128 128 126 124 123 116 103 101 103 107 112 113 112 116 121 121 120 117 110 103 97 92 87 83 81 80 76 72 70 68 65 62 66 73 75 74 72 69 65 64 62 60 62 60 56 55 56 54 55 55 50 45 43 44 45 43 37
146 126 140 123 89 58 256 252 247 242 323 350 27 78 79 72 61 36 354 339 17 27 13 80 120 142 159 154 139 127 123 128 131 125 116 104 99 103 109 114 115 114 117 122 122 121 117 112 108 102 95 91 90 89 86 81 74 66 60 56 52 54 60 63 62 60 56 53 55 56 54 53 52 48 46 46 44 40 37 35 33 31 29 26 26 28
133 138 149 110 102 222 230 206 188 158 115 301 288 94 89 83 77 60 335 321 45 40 8 1 29 94 118 139 148 136 126 129 128 119 109 105 110 113 115 115 111 108 110 115 116 114 111 110 109 103 95 91 91 91 87 81 72 62 54 49 46 48 53 55 55 55 56 55 55 54 50 47 45 41 35 32 29 29 32 32 30 28 25 14 1 6
160 173 175 154 168 222 213 186 173 141 131 209 209 138 111 92 92 116 210 208 104 102 73 12 351 28 75 92 127 134 130 123 119 116 106 103 118 124 124 122 117 109 105 106 104 101 100 101 101 98 93 89 86 84 81 75 69 62 55 51 50 51 53 55 56 58 60 58 55 52 47 41 36 28 21 17 20 27 31 27 18 18 25 23 12 1
Height
782 791 796 794 795 795 795 794 793 794 795 797 801 805 809 814 815 809 808 806 804 811 815 811 812 812 811 811 809 808 808 809 811 812 813 814 815 816 816 816 816 816 815 815 818 820 822 824 825 827 829 831 833 834 835 836 838 839 840 841 842 843 844 846 847 848 850 851 852 853 854 855 856 858 859 860 861 862 863 863 864 865 866 866 867 868
786 796 796 791 792 793 792 792 791 791 793 795 801 806 811 815 814 809 808 808 805 812 815 811 815 815 811 812 810 808 809 810 811 812 813 814 815 815 815 816 816 815 814 816 818 820 822 824 825 827 829 831 832 834 835 836 837 839 840 841 842 843 845 846 847 849 850 851 852 853 855 856 857 858 859 860 861 862 863 864 864 865 866 867 867 868
795 798 793 787 790 792 792 791 790 792 793 798 803 808 813 814 812 811 809 808 807 813 816 812 816 818 813 812 811 809 809 810 809 810 811 812 814 815 815 815 815 816 816 817 818 820 822 824 826 827 828 830 832 833 835 836 837 839 840 841 842 844 845 846 848 849 850 852 853 854 855 856 857 858 859 860 861 862 863 864 864 865 866 867 867 868
802 795 787 785 788 789 791 791 792 795 796 800 805 809 813 811 812 814 813 811 809 811 815 814 817 820 817 815 813 810 809 809 809 808 808 809 812 812 812 812 814 816 817 817 818 819 821 824 826 827 827 829 832 833 834 835 837 838 840 841 842 844 845 847 848 849 851 852 854 855 856 857 858 858 859 860 861 862 863 863 864 865 866 867 867 868
798 789 784 785 787 788 791 792 793 797 800 801 802 805 808 810 812 813 813 813 812 812 812 815 824 826 821 820 817 811 810 810 809 809 808 808 809 810 810 811 812 813 814 816 818 819 820 823 825 826 827 829 831 832 833 835 836 838 839 841 843 844 845 847 848 850 851 852 854 855 856 857 858 859 859 860 861 862 863 863 864 865 865 866 867 868
791 783 782 785 787 788 791 793 792 795 801 803 799 798 801 806 809 812 813 816 821 823 814 815 831 831 822 822 819 813 813 813 810 810 809 808 809 810 810 810 811 811 811 812 814 816 818 821 823 825 827 828 830 831 833 834 836 837 839 841 843 844 846 847 848 850 851 852 853 854 855 856 857 858 859 860 861 862 863 863 864 865 865 866 867 868
786 781 781 784 786 788 791 792 790 791 802 807 797 792 796 803 808 813 815 818 827 829 817 815 828 832 826 822 817 815 816 814 812 811 809 808 809 809 808 808 809 810 811 811 812 814 816 819 822 824 825 827 828 830 832 834 836 837 839 840 842 844 845 847 848 849 851 852 853 853 854 855 856 857 858 859 861 861 862 863 864 865 866 866 867 868
782 781 781 783 786 790 793 792 787 786 800 805 793 791 798 803 809 813 815 820 824 822 820 817 821 830 830 821 813 814 819 817 814 811 809 807 807 807 807 806 807 808 809 811 812 813 815 817 819 821 823 825 826 829 831 833 835 837 838 840 842 843 845 846 848 849 850 851 852 853 854 855 856 857 858 859 860 861 862 863 864 865 866 866 867 868
778 779 780 781 788 792 788 784 781 782 796 800 792 793 799 802 807 810 815 822 821 824 829 822 818 828 831 819 813 816 820 820 815 810 808 806 805 805 805 805 805 806 806 807 810 811 813 815 817 819 821 823 826 828 830 831 834 836 837 839 841 843 844 846 847 849 850 851 852 853 854 855 856 857 858 859 860 861 862 863 864 865 865 866 867 868
775 774 773 777 784 784 779 777 776 780 792 795 792 794 799 804 806 811 820 824 824 831 834 824 818 829 832 822 819 821 820 817 810 806 805 803 803 803 803 804 804 805 805 805 807 808 811 812 815 817 819 822 825 827 829 831 833 834 836 838 840 842 843 845 847 848 850 851 852 853 854 855 856 857 858 859 860 861 861 862 863 864 865 866 867 867
772 769 769 773 775 774 774 778 777 779 787 789 793 801 807 810 810 816 824 826 833 837 828 819 816 825 832 823 816 814 808 806 805 804 803 801 802 802 801 802 803 805 805 805 806 807 809 811 813 817 819 821 824 826 829 830 832 833 835 837 839 841 842 844 846 847 849 850 851 852 853 854 855 856 857 858 859 860 861 862 862 863 865 865 866 867
773 773 773 769 767 770 775 782 783 781 784 788 796 805 812 819 818 822 827 829 840 838 822 816 815 823 833 821 808 803 796 796 800 801 800 800 800 800 800 800 801 803 804 804 806 807 809 811 814 817 818 820 823 825 827 829 830 832 833 835 837 839 841 842 844 846 848 849 850 852 853 854 855 856 857 857 858 859 860 861 862 863 864 865 865 866
775 774 774 769 766 768 776 791 796 790 787 792 798 804 816 835 838 835 839 839 839 832 819 815 818 825 826 809 799 799 794 792 793 793 794 795 796 797 798 799 799 800 802 803 805 806 808 810 812 815 817 819 822 823 825 827 829 830 832 834 835 837 839 841 843 844 846 848 849 851 852 853 854 855 856 856 857 858 859 860 861 862 863 864 864 865
784 776 772 775 774 766 771 791 803 800 796 796 797 800 812 836 846 844 847 845 836 828 819 814 819 826 818 798 791 791 789 787 786 786 788 789 792 794 794 796 797 798 800 801 803 804 806 808 809 812 815 817 819 821 823 825 827 829 830 832 834 835 837 839 841 842 844 846 848 850 851 852 853 854 855 856 856 857 858 859 860 861 862 863 863 864
802 794 778 777 778 770 769 778 783 786 793 792 787 792 801 813 825 831 835 834 832 831 825 820 822 822 812 795 785 781 780 781 783 784 785 786 789 791 792 795 796 797 798 799 801 803 804 805 807 810 812 814 817 819 821 823 825 827 828 830 832 833 835 837 839 840 842 844 846 848 850 851 852 853 854 855 856 857 858 859 860 860 861 862 863 863
806 800 779 772 772 770 771 771 767 776 794 793 784 792 799 794 800 816 823 821 825 831 828 825 820 806 795 786 780 779 779 780 783 784 785 787 788 790 793 794 794 795 796 797 799 801 802 803 805 807 810 812 815 817 819 821 823 825 826 828 829 831 833 835 837 838 840 843 845 846 848 849 850 852 853 854 855 856 857 858 859 860 860 861 862 863
803 796 777 772 771 765 768 769 765 776 791 794 792 795 792 783 788 810 822 816 820 829 824 819 813 799 791 786 780 781 782 782 784 785 785 786 786 789 791 792 793 793 793 795 796 798 800 802 804 806 807 810 813 815 817 819 820 822 823 825 827 829 831 833 835 837 839 841 843 845 846 848 849 850 851 853 854 855 856 857 858 859 860 860 861 862
799 796 781 777 776 766 763 766 766 769 777 790 799 792 784 785 785 796 817 823 826 831 822 814 813 806 803 797 786 784 786 785 784 785 785 785 785 788 788 788 790 790 790 791 792 795 797 799 802 804 806 808 810 812 814 816 818 819 821 823 825 828 829 831 833 835 837 839 841 843 844 846 847 849 850 852 853 854 855 856 857 858 859 859 860 861
795 799 787 778 780 772 763 770 780 775 769 780 789 783 791 813 810 800 812 821 826 830 822 815 814 808 802 796 786 784 786 784 782 783 784 784 784 785 785 786 787 787 789 790 791 794 795 797 800 801 803 806 808 810 812 814 816 818 820 822 824 826 828 830 832 834 836 837 839 841 842 844 846 847 849 850 852 853 854 855 856 857 857 858 859 860
792 800 796 781 777 775 771 779 793 789 775 775 780 783 796 815 816 806 803 804 813 824 821 817 816 803 790 784 778 776 779 779 779 780 782 782 781 781 781 783 785 786 787 788 790 791 792 794 797 798 801 803 805 808 810 813 816 817 819 821 823 825 827 829 831 832 834 836 837 839 840 842 844 845 847 849 850 852 853 854 855 856 857 857 858 859
790 799 805 792 779 782 786 787 792 793 786 781 784 791 797 798 799 800 798 793 800 813 818 820 815 796 782 780 775 771 773 775 775 777 778 777 776 776 776 778 781 783 785 785 787 788 789 791 794 796 798 801 803 806 809 811 814 816 818 820 821 824 826 827 829 831 832 834 836 837 839 841 842 844 846 847 849 850 851 852 853 854 855 856 857 857
790 797 807 804 793 792 791 783 782 788 788 785 788 795 797 795 795 803 805 797 794 801 808 814 809 791 779 779 774 770 770 771 772 774 775 774 773 773 773 773 776 779 781 783 783 785 787 789 791 794 796 799 802 805 807 809 811 814 816 818 820 822 824 825 827 829 830 832 834 836 837 839 841 843 844 845 847 848 849 850 851 852 854 854 855 856
786 793 801 806 803 796 788 781 783 785 783 785 790 794 797 797 796 802 805 798 795 799 800 804 804 790 779 777 772 769 769 768 769 770 771 772 771 771 771 771 774 776 778 779 780 781 783 785 788 791 794 797 800 802 805 808 810 812 814 816 818 820 821 823 825 827 829 830 832 834 836 838 840 841 843 844 845 846 847 848 849 850 851 852 854 854
786 796 803 807 804 792 782 780 781 781 783 789 794 795 798 802 800 799 795 791 794 797 797 803 806 791 778 775 771 768 768 769 770 769 769 771 771 771 772 772 773 775 776 777 778 779 781 784 786 789 791 794 796 799 802 805 808 811 813 815 817 818 819 821 823 825 827 828 830 832 834 836 838 839 841 842 843 844 845 846 847 848 849 851 852 853
789 803 807 810 815 808 798 795 792 789 792 798 800 798 798 801 801 797 792 791 794 794 795 801 803 793 781 776 774 771 770 772 773 771 771 773 775 775 774 773 774 775 776 777 778 780 781 783 785 786 789 790 792 795 798 801 804 807 810 813 815 817 818 820 821 823 825 826 829 831 833 834 836 837 838 840 842 843 844 845 846 847 848 849 850 851
790 806 805 808 819 823 821 819 812 805 802 802 802 801 800 800 801 798 792 791 794 795 794 794 794 793 786 779 778 778 775 776 775 775 776 775 775 777 777 776 777 776 777 778 779 781 781 782 783 784 786 788 790 792 794 797 800 802 805 809 811 814 817 819 821 822 824 825 827 829 831 832 834 835 836 838 840 842 843 844 845 846 847 848 848 850
792 804 802 801 805 806 809 809 806 805 809 810 807 804 803 802 802 801 795 794 799 799 794 792 792 794 792 787 786 784 781 781 779 779 781 779 776 777 778 779 780 779 779 780 780 782 783 783 784 784 785 786 787 789 791 793 796 798 802 805 808 811 814 817 820 821 823 824 826 827 829 830 832 833 835 837 838 840 841 843 844 845 845 846 847 848
792 802 803 801 799 797 798 799 798 801 808 813 811 806 805 804 803 806 804 804 808 804 796 796 799 799 796 791 790 788 785 784 782 781 783 782 778 778 779 781 783 783 782 782 782 784 784 785 786 786 787 787 787 788 790 792 794 796 799 801 804 807 809 812 816 819 821 822 823 825 826 828 830 831 833 835 836 838 839 841 842 843 844 845 846 847
790 801 804 802 800 801 802 800 800 802 805 811 813 808 806 805 806 810 810 807 808 806 801 802 802 800 797 793 791 790 787 785 783 782 782 782 782 781 782 783 785 786 786 784 784 785 785 786 786 787 789 789 789 789 789 791 794 796 798 800 802 804 806 808 811 814 818 819 820 822 824 826 828 830 831 833 834 836 837 839 841 842 843 844 845 845
789 797 801 802 804 805 805 803 803 804 804 807 812 811 809 807 807 809 809 805 803 804 803 802 801 799 796 792 790 788 786 784 783 781 781 782 783 784 785 786 787 788 789 787 786 785 785 785 786 787 788 790 791 791 790 792 794 796 799 800 801 803 805 807 809 812 814 816 817 820 822 824 826 828 830 831 832 834 835 837 838 840 842 843 843 844
788 797 801 802 806 808 803 801 802 803 804 804 807 809 808 806 805 808 810 808 804 803 800 799 802 801 794 790 789 787 784 783 783 783 783 783 783 784 787 788 788 789 789 788 786 785 785 785 785 786 787 788 790 791 792 793 795 797 799 800 801 802 804 806 809 811 812 814 815 818 820 823 825 826 828 829 831 832 834 835 836 838 840 841 842 843
787 799 803 801 807 810 805 804 804 801 803 805 804 806 807 806 806 809 810 809 809 808 803 802 805 803 795 790 790 788 787 788 787 786 785 784 783 785 787 789 788 788 788 787 786 785 785 785 785 786 787 789 790 792 793 794 796 797 798 799 801 803 805 807 808 810 812 815 817 817 819 821 823 825 827 828 830 831 833 834 835 836 838 839 840 841
790 795 800 803 808 810 808 810 807 803 809 812 807 805 809 809 809 811 809 807 809 810 808 808 809 803 794 791 794 794 792 791 790 787 785 785 784 784 785 787 787 787 786 785 784 784 785 785 786 787 788 790 791 792 793 793 795 796 797 798 800 802 805 808 809 810 812 816 820 819 818 820 822 823 825 826 828 829 831 832 833 834 836 837 839 840
793 792 799 806 806 808 811 810 808 813 820 817 808 804 806 807 808 812 812 808 807 807 807 809 807 801 795 792 795 799 798 794 791 788 786 785 784 784 784 784 785 785 785 784 784 785 786 786 787 787 787 788 789 790 791 793 794 795 796 798 800 802 805 808 810 811 813 816 819 819 819 820 821 822 824 825 826 828 829 831 832 833 833 835 837 839
794 796 805 810 808 809 811 811 817 825 821 811 806 803 802 803 804 808 810 807 806 807 806 807 807 803 798 793 792 796 799 797 793 790 788 786 784 785 785 785 786 786 786 786 786 786 787 787 787 788 788 788 788 789 791 793 794 796 797 798 801 803 805 807 810 813 814 815 817 819 819 819 821 822 824 825 826 827 829 830 832 833 834 834 836 837
791 796 803 811 815 814 813 817 823 823 814 807 806 804 801 803 805 808 810 806 804 805 805 806 807 803 799 798 794 791 794 798 799 795 791 790 787 787 788 788 788 789 788 788 788 788 789 788 788 789 789 790 790 791 793 794 795 797 798 798 800 803 805 808 810 813 815 815 815 817 817 819 821 823 824 825 825 826 828 829 831 833 835 836 837 838
788 793 797 808 819 819 819 822 821 816 813 809 804 800 799 800 802 808 812 805 800 802 803 804 805 803 799 798 797 793 791 798 805 801 794 793 791 790 791 791 791 792 792 792 792 791 791 791 791 791 792 792 792 792 793 794 795 796 798 798 800 803 805 807 809 811 814 816 815 816 816 818 821 823 825 826 826 826 827 828 829 832 834 834 835 837
788 790 790 800 818 823 822 822 823 823 818 809 801 796 794 794 795 801 810 806 797 797 800 801 802 802 798 796 798 797 793 798 809 807 798 796 795 793 794 794 794 794 795 795 796 796 796 796 796 796 796 795 795 795 795 795 795 796 797 798 799 802 805 808 810 812 814 815 815 815 817 818 821 823 824 825 826 826 828 828 829 830 832 833 834 834
791 794 792 799 815 822 819 819 825 825 814 802 797 793 794 796 794 800 812 807 793 793 798 797 798 799 798 797 799 799 796 801 811 810 801 798 798 796 797 797 796 797 798 798 800 800 800 800 800 800 799 798 799 799 798 798 798 797 799 800 802 804 806 809 811 813 814 815 815 816 818 820 821 823 824 824 825 826 828 829 829 829 830 832 832 833
793 796 797 802 811 817 816 818 822 818 806 798 795 793 795 794 792 806 820 807 789 791 796 793 795 797 796 798 800 800 799 801 807 808 803 801 800 799 799 799 799 801 802 801 802 802 801 802 802 802 802 802 802 802 802 802 801 801 804 806 806 809 811 813 814 814 815 816 817 818 819 820 822 824 825 825 825 826 827 827 828 829 829 830 831 831
802 803 807 808 811 815 817 817 819 812 800 795 794 792 793 795 800 814 816 796 785 792 794 791 794 795 795 798 800 801 801 799 800 804 804 803 802 801 801 801 801 803 804 805 806 805 804 804 805 806 806 806 806 805 805 805 804 806 809 810 810 812 815 816 817 816 817 818 819 820 821 822 823 825 825 826 826 826 827 827 827 828 829 830 830 831
806 809 813 813 814 818 817 816 819 812 797 791 794 792 792 799 807 807 797 786 786 792 792 793 794 793 794 798 800 800 801 800 801 804 805 805 805 804 803 803 803 805 806 807 808 808 808 809 809 810 810 810 810 809 808 807 807 809 811 812 813 816 817 817 818 819 819 820 821 822 823 824 825 826 827 827 828 828 828 828 828 828 828 829 830 831
799 803 810 812 814 819 821 820 820 813 798 791 795 795 793 798 798 791 787 788 790 790 792 794 794 793 795 798 799 800 800 801 804 805 806 806 806 806 806 806 806 807 808 808 809 810 811 812 812 812 813 813 813 813 812 810 810 811 812 814 817 819 819 818 820 822 822 822 822 823 824 825 827 828 829 829 830 830 829 829 829 829 830 830 831 832
796 798 804 807 808 812 815 814 810 804 798 794 794 794 792 791 788 785 787 789 789 790 793 793 793 794 794 795 798 800 801 803 805 806 807 808 807 808 809 809 809 810 810 810 811 812 813 814 814 814 815 816 816 816 816 815 814 815 816 818 821 822 821 822 823 824 824 824 824 825 826 827 829 830 830 831 831 831 831 831 831 831 832 832 833 833
792 792 794 797 800 803 804 802 800 798 799 797 795 793 791 788 787 787 786 786 788 790 790 791 793 794 793 794 798 800 802 805 805 806 808 809 809 810 811 811 811 812 812 813 814 814 815 815 816 817 818 818 819 819 820 819 819 819 820 822 824 825 825 825 826 827 827 827 827 828 828 829 830 831 831 832 832 832 831 832 832 833 834 834 835 835
791 791 791 792 797 800 799 798 798 799 799 797 794 793 791 789 789 790 788 786 786 786 787 789 792 793 793 794 797 801 804 805 805 807 809 809 811 812 813 813 814 813 814 815 816 816 817 818 819 819 820 820 821 822 822 823 823 824 825 826 827 827 828 828 829 829 829 829 829 829 830 831 831 832 833 833 833 832 832 833 834 835 835 836 836 837
790 790 791 793 797 800 799 798 798 799 799 796 792 790 790 789 789 793 795 791 786 785 787 788 788 792 795 795 796 800 804 804 806 808 809 810 812 813 814 816 816 816 816 817 818 819 820 820 821 822 822 823 823 824 824 825 825 826 827 828 829 830 830 830 831 831 831 831 831 832 832 833 833 834 834 834 834 834 834 835 836 836 837 837 838 838
788 786 790 796 799 800 799 798 798 799 798 795 791 789 790 789 788 792 798 796 790 788 788 786 787 792 796 795 796 799 802 804 806 808 809 811 812 813 816 817 818 818 818 819 820 821 821 822 824 824 825 826 826 827 827 827 828 829 829 830 831 831 831 832 832 833 833 833 834 834 834 834 835 835 835 835 836 836 837 837 837 838 838 839 839 839
784 785 791 796 799 802 801 799 799 799 797 794 792 791 792 791 788 792 800 800 795 793 793 790 788 791 794 795 795 797 801 804 806 807 809 811 812 814 817 818 819 820 821 821 823 823 823 824 825 826 827 828 829 829 830 830 831 831 831 831 832 832 832 833 833 834 835 835 835 836 836 836 836 837 837 837 838 838 839 839 839 839 839 840 840 840
783 788 794 797 800 800 797 793 794 795 795 795 793 791 792 791 790 797 804 803 798 798 799 797 793 792 793 794 795 796 800 804 806 808 810 812 814 816 817 819 820 820 821 823 825 825 826 827 827 828 829 830 830 831 832 833 834 834 834 835 835 834 834 835 835 836 836 837 838 838 839 839 839 839 839 840 840 840 840 841 841 841 841 841 840 840
778 782 787 788 789 789 785 786 789 789 791 794 793 791 791 791 793 801 806 803 799 801 803 804 803 799 796 796 797 797 799 803 806 809 811 813 815 817 818 819 820 821 823 825 826 826 827 828 829 829 830 831 832 833 834 835 836 836 837 837 838 838 838 838 838 839 839 840 840 841 841 841 841 841 842 842 842 842 842 842 842 842 842 841 841 841